Location: Central Coast
(33.3208°S, 151.2336°E)
Time: 21:10:03
(UTC+11:00)

Tiangong 1 - Pass Details

Date: 17 October 2017
Orbit: 292 x 320 km, 42.8° (Epoch: 22 October)

Event Time Altitude Azimuth Distance (km) Brightness Sun altitude
Exits shadow 04:31:52 11° 187° (S) 1,135 3.7 -20.6°
Maximum altitude 04:32:07 11° 181° (S) 1,130 3.7 -20.6°
Drops below altitude 10° 04:32:56 10° 163° (SSE) 1,184 4.1 -20.4°
Sets 04:36:03 0° 123° (ESE) 2,016 6.3 -19.8°
